Location: Piolenc
(44.1794°N, 4.7641°E)
Time: 03:54:24
(UTC+00:00)

ERS-2 - Pass Details

Date: 27 January 2021
Orbit: 492 x 497 km, 98.6° (Epoch: 27 February)

Event Time Altitude Azimuth Distance (km) Brightness Sun altitude
Rises 05:17:48 0° 172° (S) 2,569 5.9 -19.0°
Reaches altitude 10° 05:19:53 10° 176° (S) 1,691 4.9 -18.7°
Maximum altitude 05:23:29 63° 257° (WSW) 560 2.0 -18.0°
Enters shadow 05:25:03 31° 328° (NNW) 893 3.0 -17.7°
